Time,TemperatureF,DewpointF,PressureIn,WindDirection,WindDirectionDegrees,WindSpeedMPH,WindSpeedGustMPH,Humidity,HourlyPrecipIn,Conditions,Clouds,dailyrainin,SoftwareType,DateUTC
2013-01-13 00:00:00,41.9,40.3,30.14,North,0,0.0,1.0,94,0.00,,,-99.99,WeatherLink 5.7,2013-01-13 05:00:00,
2013-01-13 00:10:00,41.9,40.0,30.13,North,0,0.0,1.0,93,0.00,,,-99.99,WeatherLink 5.7,2013-01-13 05:10:00,
2013-01-13 00:20:00,41.8,40.2,30.13,North,-999,0.0,1.0,94,0.00,,,-99.99,WeatherLink 5.7,2013-01-13 05:20:00,
2013-01-13 00:30:00,41.8,40.2,30.14,North,0,0.0,2.0,94,0.00,,,-99.99,WeatherLink 5.7,2013-01-13 05:30:00,
2013-01-13 00:40:00,42.0,40.7,30.13,North,0,1.0,2.0,95,0.00,,,-99.99,WeatherLink 5.7,2013-01-13 05:40:00,
2013-01-13 00:50:00,42.0,40.7,30.12,North,0,0.0,1.0,95,0.00,,,-99.99,WeatherLink 5.7,2013-01-13 05:50:00,
2013-01-13 01:00:00,41.9,40.6,30.12,North,-999,0.0,0.0,95,0.00,,,-99.99,WeatherLink 5.7,2013-01-13 06:00:00,
2013-01-13 01:10:00,41.8,40.5,30.12,North,-999,0.0,0.0,95,0.00,,,-99.99,WeatherLink 5.7,2013-01-13 06:10:00,
2013-01-13 01:20:00,41.9,40.6,30.11,North,-999,0.0,0.0,95,0.00,,,-99.99,WeatherLink 5.7,2013-01-13 06:20:00,
2013-01-13 01:30:00,41.9,40.8,30.12,North,-999,0.0,0.0,96,0.00,,,-99.99,WeatherLink 5.7,2013-01-13 06:30:00,
2013-01-13 01:40:00,41.9,40.8,30.11,North,-999,0.0,0.0,96,0.00,,,-99.99,WeatherLink 5.7,2013-01-13 06:40:00,
2013-01-13 01:50:00,41.8,40.7,30.11,North,-999,0.0,0.0,96,0.00,,,-99.99,WeatherLink 5.7,2013-01-13 06:50:00,
2013-01-13 02:00:00,41.8,40.7,30.11,North,-999,0.0,1.0,96,0.00,,,-99.99,WeatherLink 5.7,2013-01-13 07:00:00,
2013-01-13 02:10:00,41.8,41.3,30.11,North,0,0.0,2.0,98,0.00,,,-99.99,WeatherLink 5.7,2013-01-13 07:10:00,
2013-01-13 02:20:00,41.8,41.3,30.11,NNE,22,0.0,2.0,98,0.00,,,-99.99,WeatherLink 5.7,2013-01-13 07:20:00,
2013-01-13 02:30:00,41.9,41.6,30.12,NNE,22,0.0,2.0,99,0.00,,,-99.99,WeatherLink 5.7,2013-01-13 07:30:00,
2013-01-13 02:40:00,41.9,41.9,30.11,North,-999,0.0,1.0,100,0.00,,,-99.99,WeatherLink 5.7,2013-01-13 07:40:00,
2013-01-13 02:50:00,41.9,41.9,30.11,ENE,67,0.0,2.0,100,0.00,,,-99.99,WeatherLink 5.7,2013-01-13 07:50:00,
2013-01-13 03:02:00,41.9,41.9,30.13,ENE,67,0.0,1.0,100,0.00,,,-99.99,WeatherLink 5.7,2013-01-13 08:02:00,
2013-01-13 03:12:00,41.8,41.8,30.13,ENE,67,0.0,2.0,100,0.00,,,-99.99,WeatherLink 5.7,2013-01-13 08:12:00,
2013-01-13 03:20:00,41.8,41.8,30.13,North,-999,0.0,0.0,100,0.00,,,-99.99,WeatherLink 5.7,2013-01-13 08:20:00,
2013-01-13 03:30:00,41.7,41.7,30.13,ENE,67,0.0,2.0,100,0.00,,,-99.99,WeatherLink 5.7,2013-01-13 08:30:00,
2013-01-13 03:40:00,41.7,41.7,30.12,ENE,67,0.0,2.0,100,0.00,,,-99.99,WeatherLink 5.7,2013-01-13 08:40:00,
2013-01-13 03:50:00,41.6,41.6,30.11,ENE,67,0.0,1.0,100,0.00,,,-99.99,WeatherLink 5.7,2013-01-13 08:50:00,
2013-01-13 04:00:00,41.6,41.6,30.11,ENE,67,0.0,1.0,100,0.00,,,-99.99,WeatherLink 5.7,2013-01-13 09:00:00,
2013-01-13 04:10:00,41.6,41.6,30.10,ENE,67,0.0,2.0,100,0.00,,,-99.99,WeatherLink 5.7,2013-01-13 09:10:00,
2013-01-13 04:20:00,41.6,41.6,30.10,ENE,67,0.0,1.0,100,0.00,,,-99.99,WeatherLink 5.7,2013-01-13 09:20:00,
2013-01-13 04:30:00,41.6,41.6,30.11,ENE,67,0.0,1.0,100,0.00,,,-99.99,WeatherLink 5.7,2013-01-13 09:30:00,
2013-01-13 04:40:00,41.5,41.5,30.10,ENE,67,0.0,2.0,100,0.00,,,-99.99,WeatherLink 5.7,2013-01-13 09:40:00,
2013-01-13 04:50:00,41.5,41.5,30.09,ENE,67,1.0,2.0,100,0.00,,,-99.99,WeatherLink 5.7,2013-01-13 09:50:00,
2013-01-13 05:00:00,41.4,41.4,30.09,ENE,67,1.0,2.0,100,0.00,,,-99.99,WeatherLink 5.7,2013-01-13 10:00:00,
2013-01-13 05:10:00,41.4,41.4,30.09,ENE,67,1.0,2.0,100,0.00,,,-99.99,WeatherLink 5.7,2013-01-13 10:10:00,
2013-01-13 05:20:00,41.4,41.4,30.09,ENE,67,0.0,2.0,100,0.00,,,-99.99,WeatherLink 5.7,2013-01-13 10:20:00,
2013-01-13 05:30:00,41.4,41.4,30.09,ENE,67,0.0,2.0,100,0.00,,,-99.99,WeatherLink 5.7,2013-01-13 10:30:00,
2013-01-13 05:40:00,41.5,41.5,30.09,ENE,67,0.0,2.0,100,0.00,,,-99.99,WeatherLink 5.7,2013-01-13 10:40:00,
2013-01-13 05:50:00,41.4,41.4,30.09,ENE,67,0.0,2.0,100,0.00,,,-99.99,WeatherLink 5.7,2013-01-13 10:50:00,
2013-01-13 06:00:00,41.4,41.4,30.09,ENE,67,1.0,2.0,100,0.00,,,-99.99,WeatherLink 5.7,2013-01-13 11:00:00,
2013-01-13 06:10:00,41.4,41.4,30.09,ENE,67,0.0,2.0,100,0.00,,,-99.99,WeatherLink 5.7,2013-01-13 11:10:00,
2013-01-13 06:20:00,41.4,41.4,30.09,ENE,67,1.0,3.0,100,0.00,,,-99.99,WeatherLink 5.7,2013-01-13 11:20:00,
2013-01-13 06:30:00,41.4,41.4,30.09,ESE,112,1.0,3.0,100,0.00,,,-99.99,WeatherLink 5.7,2013-01-13 11:30:00,
2013-01-13 06:40:00,41.4,41.4,30.09,North,-999,0.0,0.0,100,0.00,,,-99.99,WeatherLink 5.7,2013-01-13 11:40:00,
2013-01-13 06:50:00,41.3,41.3,30.09,ESE,112,0.0,1.0,100,0.00,,,-99.99,WeatherLink 5.7,2013-01-13 11:50:00,
2013-01-13 07:00:00,41.4,41.4,30.10,ESE,112,0.0,2.0,100,0.00,,,-99.99,WeatherLink 5.7,2013-01-13 12:00:00,
2013-01-13 07:10:00,41.4,41.4,30.10,North,-999,0.0,0.0,100,0.00,,,-99.99,WeatherLink 5.7,2013-01-13 12:10:00,
2013-01-13 07:20:00,41.3,41.3,30.10,North,-999,0.0,0.0,100,0.00,,,-99.99,WeatherLink 5.7,2013-01-13 12:20:00,
2013-01-13 07:30:00,41.4,41.4,30.10,North,-999,0.0,0.0,100,0.00,,,-99.99,WeatherLink 5.7,2013-01-13 12:30:00,
2013-01-13 07:42:00,41.3,41.3,30.11,North,-999,0.0,0.0,100,0.00,,,-99.99,WeatherLink 5.7,2013-01-13 12:42:00,
2013-01-13 07:52:00,41.5,41.5,30.10,ESE,112,0.0,1.0,100,0.00,,,-99.99,WeatherLink 5.7,2013-01-13 12:52:00,
2013-01-13 08:02:00,41.6,41.6,30.11,ESE,112,0.0,1.0,100,0.00,,,-99.99,WeatherLink 5.7,2013-01-13 13:02:00,
2013-01-13 08:12:00,41.6,41.6,30.11,North,-999,0.0,0.0,100,0.00,,,-99.99,WeatherLink 5.7,2013-01-13 13:12:00,
2013-01-13 08:21:00,41.7,41.7,30.11,ESE,112,0.0,1.0,100,0.00,,,-99.99,WeatherLink 5.7,2013-01-13 13:21:00,
2013-01-13 08:30:00,41.9,41.9,30.11,ESE,112,0.0,2.0,100,0.00,,,-99.99,WeatherLink 5.7,2013-01-13 13:30:00,
2013-01-13 08:41:00,42.1,42.1,30.11,ESE,112,0.0,1.0,100,0.00,,,-99.99,WeatherLink 5.7,2013-01-13 13:41:00,
2013-01-13 08:52:00,42.1,42.1,30.11,ESE,112,0.0,1.0,100,0.00,,,-99.99,WeatherLink 5.7,2013-01-13 13:52:00,
2013-01-13 09:02:00,42.3,42.3,30.12,ESE,112,1.0,3.0,100,0.00,,,-99.99,WeatherLink 5.7,2013-01-13 14:02:00,
2013-01-13 09:11:00,42.3,42.3,30.11,ESE,112,0.0,2.0,100,0.00,,,-99.99,WeatherLink 5.7,2013-01-13 14:11:00,
2013-01-13 09:21:00,42.5,42.5,30.12,ESE,112,1.0,3.0,100,0.00,,,-99.99,WeatherLink 5.7,2013-01-13 14:21:00,
2013-01-13 09:32:00,42.6,42.6,30.12,ESE,112,1.0,3.0,100,0.00,,,-99.99,WeatherLink 5.7,2013-01-13 14:32:00,
2013-01-13 09:40:00,42.7,42.7,30.12,ESE,112,1.0,3.0,100,0.00,,,-99.99,WeatherLink 5.7,2013-01-13 14:40:00,
2013-01-13 09:52:00,42.8,42.8,30.13,ESE,112,0.0,2.0,100,0.00,,,-99.99,WeatherLink 5.7,2013-01-13 14:52:00,
2013-01-13 10:02:00,42.9,42.9,30.14,ESE,112,0.0,1.0,100,0.00,,,-99.99,WeatherLink 5.7,2013-01-13 15:02:00,
2013-01-13 10:12:00,42.9,42.9,30.13,ESE,112,1.0,2.0,100,0.00,,,-99.99,WeatherLink 5.7,2013-01-13 15:12:00,
2013-01-13 10:22:00,42.9,42.9,30.13,ESE,112,1.0,3.0,100,0.00,,,-99.99,WeatherLink 5.7,2013-01-13 15:22:00,
2013-01-13 10:32:00,43.0,43.0,30.13,ESE,112,0.0,3.0,100,0.00,,,-99.99,WeatherLink 5.7,2013-01-13 15:32:00,
2013-01-13 10:40:00,43.0,43.0,30.12,ESE,112,1.0,4.0,100,0.00,,,-99.99,WeatherLink 5.7,2013-01-13 15:40:00,
2013-01-13 10:50:00,43.1,43.1,30.12,ESE,112,1.0,4.0,100,0.00,,,-99.99,WeatherLink 5.7,2013-01-13 15:50:00,
2013-01-13 11:00:00,43.2,43.2,30.12,ESE,112,1.0,3.0,100,0.00,,,-99.99,WeatherLink 5.7,2013-01-13 16:00:00,
2013-01-13 11:10:00,43.5,43.5,30.12,ESE,112,0.0,2.0,100,0.00,,,-99.99,WeatherLink 5.7,2013-01-13 16:10:00,
2013-01-13 11:20:00,43.8,43.8,30.10,ESE,112,2.0,4.0,100,0.00,,,-99.99,WeatherLink 5.7,2013-01-13 16:20:00,
2013-01-13 11:30:00,43.7,43.7,30.11,ESE,112,0.0,2.0,100,0.00,,,-99.99,WeatherLink 5.7,2013-01-13 16:30:00,
2013-01-13 11:40:00,43.7,43.7,30.11,SE,135,0.0,3.0,100,0.00,,,-99.99,WeatherLink 5.7,2013-01-13 16:40:00,
2013-01-13 11:50:00,43.8,43.8,30.09,ESE,112,0.0,2.0,100,0.00,,,-99.99,WeatherLink 5.7,2013-01-13 16:50:00,
2013-01-13 12:00:00,44.0,44.0,30.10,ESE,112,0.0,2.0,100,0.00,,,-99.99,WeatherLink 5.7,2013-01-13 17:00:00,
2013-01-13 12:11:00,43.9,43.9,30.09,ESE,112,0.0,3.0,100,0.00,,,-99.99,WeatherLink 5.7,2013-01-13 17:11:00,
2013-01-13 12:22:00,44.0,44.0,30.09,SE,135,1.0,3.0,100,0.00,,,-99.99,WeatherLink 5.7,2013-01-13 17:22:00,
2013-01-13 12:32:00,44.0,44.0,30.09,SE,135,0.0,2.0,100,0.00,,,-99.99,WeatherLink 5.7,2013-01-13 17:32:00,
2013-01-13 12:41:00,44.1,44.1,30.08,SE,135,1.0,2.0,100,0.00,,,-99.99,WeatherLink 5.7,2013-01-13 17:41:00,
2013-01-13 12:50:00,44.1,44.1,30.07,SE,135,2.0,4.0,100,0.00,,,-99.99,WeatherLink 5.7,2013-01-13 17:50:00,
2013-01-13 13:00:00,44.1,44.1,30.07,ESE,112,1.0,4.0,100,0.00,,,-99.99,WeatherLink 5.7,2013-01-13 18:00:00,
2013-01-13 13:10:00,44.2,44.2,30.06,ESE,112,1.0,3.0,100,0.00,,,-99.99,WeatherLink 5.7,2013-01-13 18:10:00,
2013-01-13 13:20:00,44.3,44.3,30.06,ESE,112,1.0,3.0,100,0.00,,,-99.99,WeatherLink 5.7,2013-01-13 18:20:00,
2013-01-13 13:30:00,44.3,44.3,30.04,ESE,112,1.0,4.0,100,0.00,,,-99.99,WeatherLink 5.7,2013-01-13 18:30:00,
2013-01-13 13:40:00,44.3,44.3,30.05,ESE,112,1.0,4.0,100,0.00,,,-99.99,WeatherLink 5.7,2013-01-13 18:40:00,
2013-01-13 13:50:00,44.5,44.5,30.05,ESE,112,1.0,4.0,100,0.00,,,-99.99,WeatherLink 5.7,2013-01-13 18:50:00,
2013-01-13 14:00:00,44.6,44.6,30.06,ESE,112,0.0,2.0,100,0.00,,,-99.99,WeatherLink 5.7,2013-01-13 19:00:00,
2013-01-13 14:10:00,44.7,44.7,30.05,ESE,112,1.0,3.0,100,0.00,,,-99.99,WeatherLink 5.7,2013-01-13 19:10:00,
2013-01-13 14:20:00,44.8,44.8,30.06,ESE,112,0.0,2.0,100,0.00,,,-99.99,WeatherLink 5.7,2013-01-13 19:20:00,
2013-01-13 14:30:00,44.8,44.8,30.05,ESE,112,1.0,3.0,100,0.00,,,-99.99,WeatherLink 5.7,2013-01-13 19:30:00,
2013-01-13 14:40:00,44.7,44.7,30.05,ESE,112,1.0,3.0,100,0.00,,,-99.99,WeatherLink 5.7,2013-01-13 19:40:00,
2013-01-13 14:50:00,44.8,44.8,30.06,ESE,112,1.0,4.0,100,0.00,,,-99.99,WeatherLink 5.7,2013-01-13 19:50:00,
2013-01-13 15:00:00,44.9,44.9,30.05,ESE,112,1.0,4.0,100,0.00,,,-99.99,WeatherLink 5.7,2013-01-13 20:00:00,
2013-01-13 15:10:00,45.1,45.1,30.04,ESE,112,2.0,4.0,100,0.00,,,-99.99,WeatherLink 5.7,2013-01-13 20:10:00,
2013-01-13 15:20:00,45.2,45.2,30.03,ESE,112,2.0,5.0,100,0.00,,,-99.99,WeatherLink 5.7,2013-01-13 20:20:00,
2013-01-13 15:30:00,45.2,45.2,30.03,ESE,112,2.0,5.0,100,0.00,,,-99.99,WeatherLink 5.7,2013-01-13 20:30:00,
2013-01-13 15:40:00,45.2,45.2,30.04,ESE,112,0.0,3.0,100,0.00,,,-99.99,WeatherLink 5.7,2013-01-13 20:40:00,
2013-01-13 15:50:00,45.2,45.2,30.03,ESE,112,1.0,2.0,100,0.00,,,-99.99,WeatherLink 5.7,2013-01-13 20:50:00,
2013-01-13 16:00:00,45.2,45.2,30.06,ESE,112,0.0,1.0,100,0.00,,,-99.99,WeatherLink 5.7,2013-01-13 21:00:00,
2013-01-13 16:10:00,45.2,45.2,30.03,ESE,112,0.0,2.0,100,0.00,,,-99.99,WeatherLink 5.7,2013-01-13 21:10:00,
2013-01-13 16:20:00,45.1,45.1,30.03,ESE,112,1.0,3.0,100,0.00,,,-99.99,WeatherLink 5.7,2013-01-13 21:20:00,
2013-01-13 16:30:00,45.1,45.1,30.04,ESE,112,0.0,1.0,100,0.00,,,-99.99,WeatherLink 5.7,2013-01-13 21:30:00,
2013-01-13 16:40:00,45.1,45.1,30.05,ESE,112,0.0,1.0,100,0.00,,,-99.99,WeatherLink 5.7,2013-01-13 21:40:00,
2013-01-13 16:50:00,45.1,45.1,30.04,ESE,112,0.0,1.0,100,0.00,,,-99.99,WeatherLink 5.7,2013-01-13 21:50:00,
2013-01-13 17:00:00,45.0,45.0,30.04,ESE,112,0.0,2.0,100,0.00,,,-99.99,WeatherLink 5.7,2013-01-13 22:00:00,
2013-01-13 17:12:00,45.0,45.0,30.05,ESE,112,0.0,2.0,100,0.00,,,-99.99,WeatherLink 5.7,2013-01-13 22:12:00,
2013-01-13 17:21:00,44.9,44.9,30.03,ESE,112,1.0,2.0,100,0.00,,,-99.99,WeatherLink 5.7,2013-01-13 22:21:00,
2013-01-13 17:32:00,44.9,44.9,30.03,ESE,112,0.0,2.0,100,0.00,,,-99.99,WeatherLink 5.7,2013-01-13 22:32:00,
2013-01-13 17:40:00,44.9,44.9,30.03,ESE,112,0.0,2.0,100,0.00,,,-99.99,WeatherLink 5.7,2013-01-13 22:40:00,
2013-01-13 17:50:00,44.8,44.8,30.03,ESE,112,0.0,1.0,100,0.00,,,-99.99,WeatherLink 5.7,2013-01-13 22:50:00,
2013-01-13 18:00:00,44.7,44.7,30.04,ESE,112,0.0,2.0,100,0.00,,,-99.99,WeatherLink 5.7,2013-01-13 23:00:00,
2013-01-13 18:10:00,44.8,44.8,30.03,North,-999,0.0,1.0,100,0.00,,,-99.99,WeatherLink 5.7,2013-01-13 23:10:00,
2013-01-13 18:20:00,44.7,44.7,30.03,ESE,112,0.0,1.0,100,0.00,,,-99.99,WeatherLink 5.7,2013-01-13 23:20:00,
2013-01-13 18:30:00,44.7,44.7,30.03,North,-999,0.0,1.0,100,0.00,,,-99.99,WeatherLink 5.7,2013-01-13 23:30:00,
2013-01-13 18:40:00,44.8,44.8,30.04,North,-999,0.0,0.0,100,0.00,,,-99.99,WeatherLink 5.7,2013-01-13 23:40:00,
2013-01-13 18:52:00,44.8,44.8,30.03,ESE,112,0.0,2.0,100,0.00,,,-99.99,WeatherLink 5.7,2013-01-13 23:52:00,
2013-01-13 19:02:00,45.0,-99.9,30.03,North,-999,0.0,1.0,-999,0.00,,,-99.99,WeatherLink 5.7,2013-01-14 00:02:00,
2013-01-13 19:11:00,45.0,-99.9,30.02,North,-999,0.0,0.0,-999,0.00,,,-99.99,WeatherLink 5.7,2013-01-14 00:11:00,
2013-01-13 19:21:00,45.1,45.1,30.03,ENE,67,0.0,1.0,100,0.00,,,-99.99,WeatherLink 5.7,2013-01-14 00:21:00,
2013-01-13 19:30:00,45.3,45.3,30.03,ENE,67,0.0,2.0,100,0.00,,,-99.99,WeatherLink 5.7,2013-01-14 00:30:00,
2013-01-13 19:40:00,45.4,45.4,30.03,NE,45,0.0,2.0,100,0.00,,,-99.99,WeatherLink 5.7,2013-01-14 00:40:00,
2013-01-13 19:50:00,45.3,45.3,30.02,North,-999,0.0,0.0,100,0.00,,,-99.99,WeatherLink 5.7,2013-01-14 00:50:00,
2013-01-13 20:00:00,45.4,45.4,30.02,North,-999,0.0,1.0,100,0.00,,,-99.99,WeatherLink 5.7,2013-01-14 01:00:00,
2013-01-13 20:10:00,45.6,45.6,30.02,NE,45,0.0,1.0,100,0.00,,,-99.99,WeatherLink 5.7,2013-01-14 01:10:00,
2013-01-13 20:20:00,45.7,45.7,30.02,NE,45,0.0,1.0,100,0.00,,,-99.99,WeatherLink 5.7,2013-01-14 01:20:00,
2013-01-13 20:30:00,45.7,45.7,30.02,NE,45,0.0,1.0,100,0.00,,,-99.99,WeatherLink 5.7,2013-01-14 01:30:00,
2013-01-13 20:40:00,45.6,45.6,30.02,North,-999,0.0,0.0,100,0.00,,,-99.99,WeatherLink 5.7,2013-01-14 01:40:00,
2013-01-13 20:50:00,45.5,45.5,30.02,North,-999,0.0,0.0,100,0.00,,,-99.99,WeatherLink 5.7,2013-01-14 01:50:00,
2013-01-13 21:00:00,45.5,45.5,30.02,North,-999,0.0,0.0,100,0.00,,,-99.99,WeatherLink 5.7,2013-01-14 02:00:00,
2013-01-13 21:10:00,45.5,45.5,30.02,North,-999,0.0,0.0,100,0.00,,,-99.99,WeatherLink 5.7,2013-01-14 02:10:00,
2013-01-13 21:20:00,45.5,45.5,30.01,North,-999,0.0,0.0,100,0.00,,,-99.99,WeatherLink 5.7,2013-01-14 02:20:00,
2013-01-13 21:30:00,45.5,45.5,30.01,North,-999,0.0,0.0,100,0.00,,,-99.99,WeatherLink 5.7,2013-01-14 02:30:00,
2013-01-13 21:40:00,45.5,45.5,30.01,North,-999,0.0,0.0,100,0.00,,,-99.99,WeatherLink 5.7,2013-01-14 02:40:00,
2013-01-13 21:50:00,45.5,45.5,30.01,North,-999,0.0,0.0,100,0.01,,,-99.99,WeatherLink 5.7,2013-01-14 02:50:00,
2013-01-13 22:00:00,45.5,45.5,30.01,North,-999,0.0,0.0,100,0.01,,,-99.99,WeatherLink 5.7,2013-01-14 03:00:00,
2013-01-13 22:10:00,45.6,45.6,30.01,NE,45,0.0,2.0,100,0.01,,,-99.99,WeatherLink 5.7,2013-01-14 03:10:00,
2013-01-13 22:20:00,45.7,45.7,30.01,North,-999,0.0,0.0,100,0.01,,,-99.99,WeatherLink 5.7,2013-01-14 03:20:00,
2013-01-13 22:30:00,45.7,45.7,30.01,NE,45,0.0,1.0,100,0.01,,,-99.99,WeatherLink 5.7,2013-01-14 03:30:00,
2013-01-13 22:40:00,45.7,45.7,30.01,NE,45,0.0,1.0,100,0.01,,,-99.99,WeatherLink 5.7,2013-01-14 03:40:00,
2013-01-13 22:50:00,45.8,45.8,30.00,North,-999,0.0,0.0,100,0.00,,,-99.99,WeatherLink 5.7,2013-01-14 03:50:00,
2013-01-13 23:00:00,45.7,45.7,30.00,North,-999,0.0,0.0,100,0.00,,,-99.99,WeatherLink 5.7,2013-01-14 04:00:00,
2013-01-13 23:10:00,45.7,45.7,30.01,North,-999,0.0,0.0,100,0.00,,,-99.99,WeatherLink 5.7,2013-01-14 04:10:00,
2013-01-13 23:20:00,45.8,45.8,30.00,North,-999,0.0,0.0,100,0.00,,,-99.99,WeatherLink 5.7,2013-01-14 04:20:00,
2013-01-13 23:30:00,45.8,45.8,30.00,North,-999,0.0,0.0,100,0.00,,,-99.99,WeatherLink 5.7,2013-01-14 04:30:00,
2013-01-13 23:40:00,45.8,45.8,30.00,North,-999,0.0,0.0,100,0.00,,,-99.99,WeatherLink 5.7,2013-01-14 04:40:00,
2013-01-13 23:50:00,45.8,45.8,30.00,North,-999,0.0,0.0,100,0.00,,,-99.99,WeatherLink 5.7,2013-01-14 04:50:00,